1487163600.51,33243,14.19,74862.8,6.21,-27.83,-27.89,0,*77
1487163601.76,33244,14.19,74860.0,6.21,-27.35,-27.39,0,*76
1487163603.05,33245,14.19,74864.3,6.23,-26.81,-26.97,0,*7E
1487163604.28,33246,14.19,74860.3,6.23,-27.07,-27.13,0,*7F
1487163605.55,33247,14.19,74864.3,6.25,-26.81,-26.81,0,*7D
1487163606.83,33248,14.19,74864.5,6.23,-26.77,-26.81,0,*7D
1487163608.09,33249,14.19,74862.3,6.25,-26.93,-26.93,0,*73
1487163609.33,33250,14.19,74864.5,6.25,-27.61,-27.51,0,*78
1487163610.59,33251,14.19,74862.8,6.27,-27.39,-27.55,0,*72
1487163611.81,33252,14.19,74862.3,6.29,-26.87,-26.93,0,*70
1487163613.05,33253,14.19,74864.8,6.27,-27.71,-27.89,0,*7D
1487163614.31,33254,14.19,74860.3,6.27,-28.91,-28.97,0,*7B
1487163615.56,33255,14.19,74862.5,6.27,-28.31,-28.47,0,*7D
1487163616.84,33256,14.19,74854.0,6.27,-28.47,-28.63,0,*79
1487163618.13,33257,14.19,74858.0,6.27,-28.05,-28.09,0,*72
1487163619.37,33258,14.19,74860.5,6.27,-27.29,-27.29,0,*71
1487163620.6,33259,14.19,74860.5,6.29,-27.29,-27.39,0,*7F
1487163621.81,33260,14.19,74862.8,6.29,-28.15,-28.31,0,*72
1487163623.06,33261,14.19,74860.0,6.27,-28.31,-28.43,0,*7E
1487163624.33,33262,14.19,74858.0,6.27,-28.25,-28.31,0,*7D
1487163625.58,33263,14.19,74856.8,6.29,-27.39,-27.45,0,*7C
1487163626.86,33264,14.19,74858.0,6.27,-27.45,-27.39,0,*75
1487163628.09,33265,14.19,74858.0,6.29,-28.15,-28.43,0,*72
1487163629.35,33266,14.19,74860.0,6.29,-29.35,-29.51,0,*70
1487163630.62,33267,14.19,74856.5,6.27,-29.13,-29.13,0,*7D
1487163631.87,33268,14.19,74854.8,6.29,-28.59,-28.47,0,*73
1487163633.11,33269,14.19,74860.0,6.29,-28.47,-28.75,0,*7C
1487163634.37,33270,14.19,74862.0,6.27,-28.31,-28.47,0,*7A
1487163635.63,33271,14.19,74858.5,6.27,-27.55,-27.61,0,*7D
1487163636.86,33272,14.19,74858.5,6.29,-27.29,-27.23,0,*7D
1487163638.09,33273,14.19,74858.0,6.29,-27.29,-27.39,0,*77
1487163639.31,33274,14.19,74862.8,6.29,-27.55,-27.45,0,*70
1487163640.57,33275,14.19,74860.0,6.29,-28.59,-28.59,0,*70
1487163641.85,33276,14.19,74860.5,6.27,-28.09,-28.25,0,*73
1487163643.09,33277,14.19,74860.5,6.29,-28.09,-28.15,0,*7F
1487163644.34,33278,14.19,74860.5,6.29,-27.39,-27.39,0,*7D
1487163645.57,33279,14.19,74856.3,6.29,-28.15,-28.25,0,*7F
1487163646.83,33280,14.19,74860.5,6.31,-29.01,-28.85,0,*7E
1487163648.12,33281,14.19,74862.0,6.35,-27.61,-27.61,0,*76
1487163649.34,33282,14.19,74860.0,6.29,-28.31,-28.43,0,*7D
1487163650.59,33283,14.19,74860.0,6.29,-28.43,-28.63,0,*7B
1487163651.83,33284,14.19,74858.3,6.31,-28.37,-28.53,0,*75
1487163653.02,33285,14.19,74862.0,6.29,-27.89,-27.93,0,*74
1487163654.25,33286,14.19,74862.3,6.29,-28.91,-29.07,0,*72
1487163655.5,33287,14.19,74862.5,6.27,-28.31,-28.43,0,*76
1487163656.79,33288,14.19,74860.0,6.27,-28.59,-28.63,0,*75
1487163658.02,33289,14.19,74864.8,6.29,-28.79,-28.97,0,*73
1487163659.24,33290,14.19,74864.5,6.29,-29.13,-29.23,0,*78
1487163660.52,33291,14.19,74862.5,6.27,-28.63,-28.75,0,*73
1487163661.74,33292,14.19,74860.3,6.27,-28.97,-29.07,0,*7F
1487163663.02,33293,14.19,74862.5,6.27,-28.43,-28.47,0,*72
1487163664.25,33294,14.19,74862.0,6.25,-29.01,-28.97,0,*7D
1487163665.46,33295,14.19,74860.8,6.25,-28.37,-28.53,0,*70
1487163666.67,33296,14.19,74862.5,6.25,-27.67,-27.77,0,*70
1487163667.91,33297,14.19,74864.0,6.25,-27.51,-27.61,0,*73
1487163669.16,33298,14.19,74862.8,6.29,-28.47,-28.63,0,*75
1487163670.43,33299,14.19,74864.5,6.27,-29.13,-29.13,0,*7C
1487163671.71,33300,14.19,74864.5,6.27,-28.91,-29.13,0,*76
1487163672.98,33301,14.19,74864.3,6.27,-29.51,-29.61,0,*7F
1487163674.23,33302,14.19,74868.5,6.25,-29.17,-29.29,0,*70
1487163675.44,33303,14.19,74864.8,6.25,-28.97,-28.85,0,*7F
1487163676.67,33304,14.19,74866.8,6.23,-28.85,-28.97,0,*7E
1487163677.9,33305,14.19,74862.0,6.25,-28.47,-28.53,0,*7F
1487163679.13,33306,14.19,74856.0,6.23,-28.31,-28.37,0,*79
1487163680.39,33307,14.19,74856.0,6.25,-28.09,-28.09,0,*78
1487163681.62,33308,14.19,74852.3,6.25,-27.83,-27.77,0,*7C
1487163682.85,33309,14.19,74848.3,6.25,-27.77,-27.61,0,*71
1487163684.11,33310,14.19,74846.8,6.25,-27.19,-27.35,0,*70
1487163685.36,33311,14.19,74850.5,6.29,-27.39,-27.39,0,*73
1487163686.63,33312,14.19,74852.8,6.27,-27.61,-27.71,0,*7F
1487163687.85,33313,14.19,74854.0,6.29,-27.55,-27.45,0,*70
1487163689.1,33314,14.19,74856.3,6.31,-27.03,-26.97,0,*73
1487163690.38,33315,14.19,74854.8,6.31,-27.35,-27.35,0,*7E
1487163691.61,33316,14.19,74854.8,6.31,-28.37,-28.37,0,*7D
1487163692.89,33317,14.19,74856.0,6.35,-27.99,-28.05,0,*72
1487163694.16,33318,14.19,74856.3,6.31,-28.05,-28.15,0,*72
1487163695.43,33319,14.19,74854.5,6.31,-28.43,-28.43,0,*72
1487163696.66,33320,14.19,74856.8,6.31,-29.57,-29.79,0,*74
1487163697.92,33321,14.19,74854.5,6.31,-29.89,-30.11,0,*70
1487163699.15,33322,14.19,74850.5,6.27,-29.67,-29.95,0,*70
1487163700.4,33323,14.19,74856.3,6.29,-28.91,-28.79,0,*74
1487163701.68,33324,14.19,74858.3,6.27,-28.59,-28.75,0,*75
1487163702.89,33325,14.19,74856.5,6.29,-28.31,-28.31,0,*74
1487163704.12,33326,14.19,74858.3,6.27,-27.93,-27.89,0,*72
1487163705.34,33327,14.19,74854.8,6.29,-27.55,-27.45,0,*77
1487163706.55,33328,14.19,74856.5,6.29,-27.03,-27.03,0,*79
1487163707.82,33329,14.19,74856.0,6.31,-27.83,-27.83,0,*71
1487163709.1,33330,14.19,74856.3,6.35,-28.25,-28.43,0,*7D
1487163710.39,33331,14.19,74858.5,6.31,-28.21,-28.25,0,*7C
1487163711.64,33332,14.19,74860.8,6.31,-27.51,-27.39,0,*75
1487163712.93,33333,14.19,74862.5,6.35,-26.81,-26.97,0,*79
1487163714.22,33334,14.19,74860.0,6.35,-26.81,-26.97,0,*7E
1487163715.5,33335,14.19,74862.0,6.35,-26.81,-26.93,0,*7B
1487163716.75,33336,14.19,74862.5,6.37,-26.93,-26.97,0,*7D
1487163718.01,33337,14.19,74862.0,6.37,-26.81,-26.93,0,*7B
1487163719.29,33338,14.19,74862.0,6.39,-26.97,-26.97,0,*79
1487163720.52,33339,14.25,74862.0,6.39,-26.61,-26.61,0,*78
1487163721.72,33340,14.19,74862.3,6.41,-27.03,-27.07,0,*7D
1487163723.0,33341,14.19,74862.8,6.43,-28.05,-28.09,0,*76
1487163724.27,33342,14.19,74860.8,6.43,-27.19,-27.23,0,*70
1487163725.52,33343,14.19,74860.3,6.41,-27.39,-27.39,0,*7A
1487163726.8,33344,14.19,74862.5,6.43,-27.39,-27.23,0,*74
1487163728.03,33345,14.19,74860.5,6.43,-27.03,-27.03,0,*7E
1487163729.31,33346,14.19,74862.8,6.43,-26.93,-26.93,0,*7D
1487163730.51,33347,14.19,74860.0,6.45,-26.65,-26.65,0,*7A
1487163731.76,33348,14.19,74862.8,6.47,-27.13,-27.19,0,*7D
1487163732.98,33349,14.19,74864.0,6.45,-27.83,-27.89,0,*7E
1487163734.22,33350,14.19,74864.0,6.45,-27.45,-27.45,0,*7C
1487163735.48,33351,14.19,74866.8,6.47,-27.89,-28.05,0,*74
1487163736.72,33352,14.19,74864.8,6.47,-28.47,-28.53,0,*79
1487163737.97,33353,14.19,74864.8,6.47,-28.79,-28.97,0,*7D
1487163739.22,33354,14.19,74864.5,6.45,-29.17,-29.51,0,*7A
1487163740.45,33355,14.19,74862.5,6.45,-29.83,-29.89,0,*73
1487163741.67,33356,14.25,74864.8,6.47,-29.07,-29.23,0,*7E
1487163742.87,33357,14.19,74864.3,6.45,-28.97,-29.23,0,*75
1487163744.1,33358,14.19,74860.8,6.43,-29.57,-29.61,0,*77
1487163745.3,33359,14.19,74862.3,6.41,-30.11,-30.33,0,*71
1487163746.53,33360,14.19,74862.0,6.39,-29.83,-30.11,0,*77
1487163747.79,33361,14.19,74862.5,6.37,-30.89,-31.23,0,*7A
1487163748.99,33362,14.19,74862.0,6.37,-31.45,-31.79,0,*77
1487163750.24,33363,14.19,74858.8,6.31,-31.17,-31.51,0,*7D
1487163751.47,33364,14.19,74856.8,6.31,-31.33,-31.67,0,*79
1487163752.72,33365,14.19,74858.0,6.27,-30.33,-30.51,0,*7A
1487163754.01,33366,14.19,74852.5,6.27,-31.73,-32.07,0,*7D
1487163755.25,33367,14.19,74852.3,6.25,-31.95,-32.13,0,*73
1487163756.47,33368,14.19,74846.0,6.21,-31.51,-31.67,0,*70
1487163757.68,33369,14.19,74840.0,6.19,-32.57,-32.91,0,*75
1487163758.94,33370,14.19,74842.3,6.19,-31.61,-31.85,0,*7D
1487163760.2,33371,14.19,74836.8,6.15,-29.89,-30.01,0,*72
1487163761.45,33372,14.19,74840.8,6.15,-30.39,-30.73,0,*77
1487163762.71,33373,14.25,74846.8,6.15,-30.77,-30.95,0,*74
1487163763.97,33374,14.19,74848.3,6.13,-31.23,-31.45,0,*79
1487163765.21,33375,14.19,74848.0,6.09,-31.17,-31.45,0,*74
1487163766.44,33376,14.19,74850.5,6.09,-31.29,-31.33,0,*7B
1487163767.67,33377,14.25,74854.8,6.07,-31.51,-31.79,0,*75
1487163768.9,33378,14.19,74848.0,6.05,-31.17,-31.33,0,*74
1487163770.19,33379,14.19,74852.8,6.05,-30.89,-30.89,0,*73
1487163771.4,33380,14.19,74856.3,6.03,-29.61,-29.83,0,*7F
1487163772.64,33381,14.19,74854.5,6.03,-28.85,-29.01,0,*7F
1487163773.88,33382,14.19,74856.3,6.03,-28.09,-28.15,0,*7C
1487163775.11,33383,14.19,74858.0,6.03,-28.31,-28.43,0,*75
1487163776.36,33384,14.19,74858.3,6.05,-27.71,-27.61,0,*70
1487163777.63,33385,14.19,74858.5,6.07,-27.99,-27.99,0,*72
1487163778.88,33386,14.19,74856.0,6.07,-27.83,-27.83,0,*71
1487163780.17,33387,14.19,74858.3,6.09,-27.99,-28.05,0,*74
1487163781.46,33388,14.19,74862.3,6.09,-28.21,-28.21,0,*71
1487163782.72,33389,14.19,74860.0,6.13,-27.61,-27.67,0,*7D
1487163783.99,33390,14.25,74864.5,6.13,-27.83,-27.83,0,*73
1487163785.24,33391,14.19,74862.3,6.13,-27.51,-27.45,0,*77
1487163786.53,33392,14.25,74860.3,6.13,-27.61,-27.61,0,*71
1487163787.76,33393,14.19,74862.0,6.15,-27.35,-27.29,0,*7B
1487163789.02,33394,14.19,74862.3,6.17,-27.45,-27.71,0,*74
1487163790.25,33395,14.25,74866.8,6.19,-28.59,-28.85,0,*7D
1487163791.49,33396,14.19,74862.5,6.19,-28.25,-28.37,0,*7C
1487163792.72,33397,14.19,74858.0,6.17,-27.77,-27.77,0,*70
1487163793.92,33398,14.19,74860.3,6.19,-27.51,-27.55,0,*75
1487163795.13,33399,14.19,74860.8,6.19,-27.51,-27.55,0,*74
1487163796.33,33400,14.19,74860.3,6.21,-27.03,-27.13,0,*7D
1487163797.58,33401,14.19,74858.3,6.21,-28.25,-28.43,0,*7D
1487163798.85,33402,14.25,74862.8,6.23,-27.61,-27.67,0,*7A
1487163800.09,33403,14.19,74858.3,6.23,-27.07,-27.07,0,*7D
1487163801.36,33404,14.25,74862.5,6.23,-27.19,-27.35,0,*74
1487163802.63,33405,14.25,74862.5,6.23,-28.21,-28.37,0,*7C
1487163803.88,33406,14.25,74860.5,6.25,-28.47,-28.63,0,*78
1487163805.1,33407,14.19,74856.5,6.25,-28.53,-28.69,0,*76
1487163806.36,33408,14.19,74854.8,6.25,-28.09,-28.21,0,*7A
1487163807.57,33409,14.19,74852.5,6.25,-28.15,-28.31,0,*77
1487163808.86,33410,14.19,74854.3,6.27,-27.61,-27.61,0,*7B
1487163810.12,33411,14.19,74852.0,6.27,-27.29,-27.39,0,*7B
1487163811.35,33412,14.19,74852.5,6.27,-27.13,-27.13,0,*79
1487163812.6,33413,14.19,74852.8,6.29,-27.45,-27.45,0,*76
1487163813.83,33414,14.25,74858.3,6.29,-27.29,-27.39,0,*70
1487163815.07,33415,14.19,74852.5,6.29,-27.61,-27.55,0,*77
1487163816.32,33416,14.25,74856.5,6.31,-27.51,-27.39,0,*74
1487163817.55,33417,14.19,74854.3,6.31,-27.51,-27.51,0,*7B
1487163818.79,33418,14.25,74858.8,6.35,-27.29,-27.29,0,*70
1487163820.01,33419,14.25,74858.5,6.35,-27.13,-27.13,0,*71
1487163821.22,33420,14.19,74854.5,6.37,-27.67,-27.77,0,*78
1487163822.41,33421,14.25,74856.5,6.37,-27.67,-27.93,0,*73
1487163823.65,33422,14.19,74852.5,6.37,-27.61,-27.51,0,*78
1487163824.89,33423,14.25,74858.0,6.37,-27.35,-27.35,0,*7A
1487163826.13,33424,14.25,74854.3,6.39,-27.29,-27.29,0,*73
1487163827.39,33425,14.19,74856.5,6.39,-28.15,-28.25,0,*71
1487163828.67,33426,14.19,74852.0,6.39,-27.39,-27.39,0,*71
1487163829.92,33427,14.19,74856.0,6.39,-27.45,-27.55,0,*71
1487163831.15,33428,14.19,74856.5,6.39,-27.89,-27.93,0,*74
1487163832.37,33429,14.25,74858.0,6.39,-27.07,-27.13,0,*7B
1487163833.58,33430,14.19,74856.0,6.41,-27.55,-27.67,0,*78
1487163834.84,33431,14.25,74858.5,6.41,-28.25,-28.25,0,*78
1487163836.07,33432,14.25,74858.0,6.41,-27.67,-27.83,0,*71
1487163837.29,33433,14.19,74856.8,6.41,-27.55,-27.39,0,*70
1487163838.52,33434,14.19,74854.8,6.41,-27.83,-27.89,0,*77
1487163839.77,33435,14.25,74854.8,6.43,-27.39,-27.51,0,*70
1487163841.02,33436,14.19,74852.8,6.41,-27.35,-27.39,0,*73
1487163842.29,33437,14.25,74856.0,6.43,-27.35,-27.23,0,*7B
1487163843.54,33438,14.25,74856.5,6.43,-27.39,-27.51,0,*7D
1487163844.77,33439,14.25,74852.8,6.43,-27.51,-27.67,0,*77
1487163846.03,33440,14.25,74854.0,6.45,-26.81,-26.97,0,*7D
1487163847.27,33441,14.25,74856.8,6.45,-27.35,-27.35,0,*7B
1487163848.55,33442,14.25,74856.5,6.47,-27.99,-28.21,0,*76
1487163849.8,33443,14.25,74856.0,6.47,-28.31,-28.47,0,*7A
1487163851.02,33444,14.19,74854.5,6.45,-27.99,-27.89,0,*7F
1487163852.25,33445,14.25,74856.0,6.47,-27.67,-27.67,0,*7D
1487163853.51,33446,14.25,74856.3,6.47,-27.45,-27.51,0,*7B
1487163854.76,33447,14.25,74856.5,6.47,-27.45,-27.51,0,*7A
1487163856.01,33448,14.19,74858.5,6.47,-27.29,-27.35,0,*7D
1487163857.26,33449,14.25,74858.0,6.47,-27.13,-27.19,0,*7B
1487163858.49,33450,14.19,74856.8,6.49,-27.29,-27.39,0,*76
1487163859.72,33451,14.25,74856.5,6.51,-27.51,-27.51,0,*7F
1487163860.96,33452,14.25,74860.0,6.51,-27.07,-27.03,0,*78
1487163862.23,33453,14.25,74862.8,6.51,-27.19,-27.19,0,*7D
1487163863.5,33454,14.25,74858.8,6.53,-27.23,-27.19,0,*71
1487163864.78,33455,14.25,74858.8,6.53,-26.93,-26.93,0,*79
1487163866.02,33456,14.25,74860.8,6.53,-27.19,-27.07,0,*75
1487163867.27,33457,14.25,74856.5,6.57,-27.19,-27.29,0,*7C
1487163868.53,33458,14.25,74862.8,6.57,-26.87,-26.97,0,*71
1487163869.79,33459,14.25,74856.3,6.57,-27.29,-27.35,0,*7C
1487163871.0,33460,14.25,74860.5,6.59,-27.07,-27.07,0,*75
1487163872.27,33461,14.19,74858.3,6.61,-27.23,-27.23,0,*7F
1487163873.53,33462,14.25,74858.8,6.59,-26.93,-26.93,0,*77
1487163874.76,33463,14.25,74858.0,6.61,-26.65,-26.65,0,*7D
1487163875.99,33464,14.25,74858.3,6.61,-26.45,-26.45,0,*7A
1487163877.27,33465,14.25,74856.5,6.61,-26.93,-26.93,0,*7B
1487163878.5,33466,14.25,74858.5,6.65,-27.03,-27.03,0,*7C
1487163879.77,33467,14.25,74856.5,6.65,-27.19,-27.23,0,*74
1487163881.0,33468,14.25,74862.0,6.63,-27.07,-27.35,0,*75
1487163882.23,33469,14.25,74858.0,6.65,-27.77,-27.89,0,*72
1487163883.48,33470,14.25,74856.0,6.65,-27.93,-28.05,0,*7B
1487163884.76,33471,14.25,74860.0,6.65,-27.39,-27.35,0,*76
1487163886.01,33472,14.25,74854.8,6.63,-27.19,-27.19,0,*7F
1487163887.28,33473,14.19,74856.5,6.65,-27.39,-27.39,0,*78
1487163888.53,33474,14.25,74856.3,6.65,-27.39,-27.51,0,*71
1487163889.78,33475,14.25,74856.8,6.65,-27.03,-26.93,0,*76
1487163890.98,33476,14.25,74858.5,6.67,-27.51,-27.55,0,*7B
1487163892.19,33477,14.25,74860.8,6.67,-27.71,-27.71,0,*7E
1487163893.47,33478,14.25,74860.8,6.69,-26.93,-26.81,0,*7C
1487163894.75,33479,14.25,74858.0,6.69,-26.97,-26.93,0,*7A
1487163895.97,33480,14.25,74856.5,6.69,-26.45,-26.45,0,*78
1487163897.22,33481,14.25,74858.3,6.69,-27.13,-27.23,0,*7A
1487163898.45,33482,14.25,74860.0,6.71,-27.29,-27.23,0,*79
1487163899.68,33483,14.25,74860.3,6.71,-27.51,-27.61,0,*71
1487163900.88,33484,14.25,74858.8,6.71,-27.93,-27.93,0,*75
1487163902.08,33485,14.25,74856.3,6.71,-27.77,-27.77,0,*74
1487163903.31,33486,14.25,74858.3,6.71,-27.29,-27.23,0,*7D
1487163904.58,33487,14.25,74856.3,6.73,-27.19,-27.19,0,*74
1487163905.78,33488,14.25,74854.5,6.71,-27.13,-27.13,0,*79
1487163907.02,33489,14.25,74856.0,6.73,-26.87,-26.77,0,*75
1487163908.3,33490,14.25,74858.8,6.73,-26.71,-26.77,0,*74
1487163909.51,33491,14.25,74856.5,6.75,-27.03,-27.03,0,*75
1487163910.73,33492,14.25,74856.5,6.75,-26.93,-26.87,0,*73
1487163911.93,33493,14.25,74858.5,6.79,-27.71,-27.89,0,*7C
1487163913.18,33494,14.25,74858.3,6.75,-28.43,-28.25,0,*70
1487163914.45,33495,14.25,74858.8,6.81,-27.35,-27.45,0,*7D
1487163915.68,33496,14.25,74860.0,6.75,-27.93,-28.09,0,*7E
1487163916.9,33497,14.25,74856.5,6.79,-27.29,-27.39,0,*7E
1487163918.12,33498,14.25,74858.0,6.79,-27.39,-27.51,0,*7E
1487163919.32,33499,14.25,74858.0,6.79,-27.55,-27.67,0,*70
1487163920.52,33500,14.25,74858.0,6.75,-27.89,-27.89,0,*7C
1487163921.74,33501,14.25,74860.0,6.79,-27.89,-27.99,0,*70
1487163922.97,33502,14.19,74854.5,6.75,-27.39,-27.55,0,*74
1487163924.21,33503,14.25,74856.0,6.79,-27.19,-27.35,0,*7D
1487163925.44,33504,14.25,74858.0,6.79,-27.29,-27.19,0,*77
1487163926.66,33505,14.25,74862.0,6.79,-27.29,-27.35,0,*78
1487163927.93,33506,14.25,74856.5,6.81,-27.23,-27.23,0,*71
1487163929.19,33507,14.25,74856.3,6.83,-26.97,-26.93,0,*76
1487163930.44,33508,14.25,74856.3,6.83,-26.93,-26.93,0,*7D
1487163931.7,33509,14.25,74860.0,6.83,-26.81,-26.81,0,*7C
1487163932.98,33510,14.25,74860.8,6.81,-26.81,-26.93,0,*75
1487163934.23,33511,14.25,74858.8,6.83,-26.81,-26.93,0,*76
1487163935.44,33512,14.25,74856.3,6.83,-27.13,-27.07,0,*73
1487163936.69,33513,14.25,74856.0,6.87,-27.03,-26.93,0,*7B
1487163937.93,33514,14.25,74860.0,6.85,-27.23,-27.23,0,*76
1487163939.21,33515,14.25,74858.3,6.87,-27.23,-27.23,0,*75
1487163940.46,33516,14.25,74860.0,6.87,-27.03,-27.19,0,*7D
1487163941.73,33517,14.25,74856.8,6.87,-27.19,-27.19,0,*77
1487163942.99,33518,14.25,74856.8,6.87,-27.29,-27.39,0,*79
1487163944.24,33519,14.25,74858.8,6.89,-27.19,-27.35,0,*79
1487163945.47,33520,14.25,74858.0,6.89,-26.97,-26.87,0,*7C
1487163946.72,33521,14.25,74858.0,6.89,-27.19,-27.23,0,*75
1487163947.95,33522,14.25,74858.5,6.89,-26.81,-26.87,0,*79
1487163949.21,33523,14.25,74858.5,6.89,-26.93,-26.97,0,*7A
1487163950.49,33524,14.25,74856.8,6.91,-26.93,-26.97,0,*74
1487163951.76,33525,14.25,74856.8,6.91,-27.29,-27.35,0,*7C
1487163952.99,33526,14.25,74856.8,6.93,-27.61,-27.51,0,*73
1487163954.24,33527,14.25,74858.8,6.95,-27.29,-27.23,0,*7D
1487163955.46,33528,14.25,74858.5,6.95,-27.13,-27.07,0,*7D
1487163956.72,33529,14.25,74858.0,6.93,-26.97,-26.97,0,*7F
1487163957.97,33530,14.25,74858.5,6.95,-27.23,-27.13,0,*72
1487163959.21,33531,14.25,74860.3,6.95,-26.87,-26.77,0,*7F
1487163960.44,33532,14.25,74858.5,6.95,-26.39,-26.39,0,*73
1487163961.71,33533,14.25,74856.3,6.99,-27.19,-27.23,0,*77
1487163962.98,33534,14.25,74858.0,6.99,-27.19,-27.19,0,*79
1487163964.23,33535,14.25,74862.8,6.97,-27.39,-27.39,0,*76
1487163965.43,33536,14.25,74860.5,6.97,-27.93,-27.93,0,*75
1487163966.65,33537,14.25,74858.8,6.97,-27.77,-27.61,0,*73
1487163967.88,33538,14.25,74860.3,6.97,-26.77,-26.87,0,*74
1487163969.15,33539,14.25,74858.8,6.99,-27.35,-27.35,0,*74
1487163970.38,33540,14.25,74860.8,6.99,-27.07,-27.07,0,*7A
1487163971.61,33541,14.25,74858.3,6.99,-27.07,-27.07,0,*7B
1487163972.87,33542,14.25,74862.0,6.99,-27.07,-27.23,0,*7E
1487163974.14,33543,14.25,74856.8,6.99,-27.23,-27.39,0,*72
1487163975.39,33544,14.25,74856.3,7.03,-27.19,-27.29,0,*7F
1487163976.65,33545,14.25,74858.5,7.03,-26.97,-27.03,0,*71
1487163977.94,33546,14.25,74858.3,7.03,-26.77,-26.77,0,*7E
1487163979.17,33547,14.25,74860.5,7.05,-27.29,-27.35,0,*74
1487163980.42,33548,14.25,74856.0,7.03,-27.03,-26.97,0,*7C
1487163981.7,33549,14.25,74858.8,7.07,-26.93,-26.97,0,*71
1487163982.96,33550,14.25,74858.3,7.09,-26.77,-26.77,0,*73
1487163984.19,33551,14.25,74856.8,7.09,-27.77,-27.61,0,*75
1487163985.44,33552,14.25,74858.0,7.09,-28.05,-28.05,0,*71
1487163986.68,33553,14.25,74856.8,7.07,-27.29,-27.29,0,*7E
1487163987.93,33554,14.25,74858.8,7.07,-27.13,-27.23,0,*7A
1487163989.17,33555,14.25,74860.0,7.07,-27.55,-27.45,0,*79
1487163990.4,33556,14.25,74860.8,7.09,-27.45,-27.55,0,*74
1487163991.66,33557,14.25,74862.3,7.07,-27.39,-27.29,0,*7B
1487163992.85,33558,14.25,74858.5,7.09,-27.93,-27.77,0,*71
1487163994.08,33559,14.25,74856.5,7.09,-27.61,-27.71,0,*7B
1487163995.28,33560,14.25,74856.5,7.09,-27.93,-27.93,0,*70
1487163996.54,33561,14.25,74858.5,7.09,-28.25,-28.25,0,*71
1487163997.79,33562,14.25,74862.3,7.09,-27.39,-27.39,0,*72
1487163999.05,33563,14.25,74856.3,7.09,-28.25,-28.25,0,*73
1487164000.27,33564,14.25,74858.0,7.09,-29.17,-29.45,0,*73
1487164001.54,33565,14.25,74860.8,7.07,-28.75,-28.79,0,*77
1487164002.79,33566,14.25,74860.8,7.07,-28.05,-27.93,0,*78
1487164004.02,33567,14.25,74862.0,7.07,-27.71,-27.71,0,*79
1487164005.27,33568,14.25,74858.8,7.09,-28.63,-28.63,0,*78
1487164006.54,33569,14.25,74858.5,7.07,-28.47,-28.47,0,*77
1487164007.79,33570,14.25,74858.8,7.07,-28.31,-28.43,0,*7A
1487164009.07,33571,14.25,74858.5,7.07,-28.79,-28.91,0,*78
1487164010.33,33572,14.25,74858.8,7.07,-28.05,-27.89,0,*76
1487164011.61,33573,14.25,74862.3,7.07,-27.39,-27.39,0,*7C
1487164012.83,33574,14.25,74860.3,7.07,-27.89,-27.93,0,*70
1487164014.06,33575,14.25,74858.5,7.07,-28.15,-28.31,0,*7C
1487164015.31,33576,14.25,74860.5,7.07,-28.97,-29.17,0,*70
1487164016.58,33577,14.25,74860.0,7.07,-28.47,-28.63,0,*7E
1487164017.81,33578,14.25,74862.3,7.05,-28.79,-28.85,0,*76
1487164019.07,33579,14.25,74860.3,7.03,-29.57,-29.73,0,*74
1487164020.29,33580,14.25,74860.8,7.03,-28.97,-28.97,0,*74
1487164021.58,33581,14.25,74862.3,7.03,-29.35,-29.51,0,*77
1487164022.83,33582,14.25,74860.5,7.03,-28.97,-29.01,0,*78
1487164024.05,33583,14.25,74862.3,6.99,-29.79,-29.79,0,*75
1487164025.29,33584,14.25,74864.5,6.97,-29.13,-29.13,0,*7C
1487164026.54,33585,14.25,74866.3,6.97,-28.75,-28.91,0,*77
1487164027.76,33586,14.25,74862.8,6.97,-29.35,-29.61,0,*7F
1487164028.99,33587,14.25,74866.5,6.97,-29.45,-29.51,0,*7A
1487164030.19,33588,14.25,74862.8,6.97,-29.83,-29.95,0,*77
1487164031.42,33589,14.25,74862.5,6.97,-31.05,-31.23,0,*75
1487164032.65,33590,14.25,74858.5,6.93,-31.39,-31.45,0,*76
1487164033.92,33591,14.25,74858.0,6.91,-30.73,-30.95,0,*76
1487164035.15,33592,14.25,74858.3,6.89,-31.73,-32.01,0,*72
1487164036.38,33593,14.25,74858.8,6.85,-31.23,-31.33,0,*78
1487164037.58,33594,14.25,74860.3,6.85,-31.05,-31.17,0,*7D
1487164038.81,33595,14.25,74862.3,6.85,-29.67,-30.01,0,*77
1487164040.04,33596,14.25,74860.0,6.83,-29.67,-29.73,0,*7F
1487164041.28,33597,14.25,74862.8,6.83,-29.29,-29.29,0,*7B
1487164042.52,33598,14.25,74858.8,6.83,-30.67,-30.73,0,*71
1487164043.74,33599,14.25,74856.5,6.79,-31.05,-31.23,0,*74
1487164044.99,33600,14.25,74854.8,6.79,-30.77,-30.95,0,*7F
1487164046.22,33601,14.25,74856.0,6.75,-30.17,-30.45,0,*79
1487164047.44,33602,14.25,74856.5,6.75,-30.33,-30.51,0,*79
1487164048.67,33603,14.25,74852.8,6.75,-31.05,-31.23,0,*78
1487164049.9,33604,14.25,74852.8,6.71,-32.97,-33.37,0,*74
1487164051.13,33605,14.25,74852.0,6.71,-33.03,-33.27,0,*78
1487164052.32,33606,14.25,74850.3,6.67,-32.35,-32.57,0,*7E
1487164053.55,33607,14.25,74850.5,6.63,-34.01,-34.59,0,*72
1487164054.78,33608,14.25,74846.8,6.59,-34.65,-34.89,0,*7B
1487164056.06,33609,14.25,74850.8,6.53,-33.09,-33.27,0,*7E
1487164057.3,33610,14.25,74854.3,6.53,-33.37,-33.67,0,*7F
1487164058.49,33611,14.25,74856.0,6.49,-33.55,-33.95,0,*7C
1487164059.72,33612,14.25,74854.3,6.45,-33.27,-33.67,0,*7B
1487164060.91,33613,14.25,74846.5,6.45,-32.91,-32.91,0,*7E
1487164062.12,33614,14.25,74836.5,6.41,-30.83,-31.01,0,*76
1487164063.37,33615,14.25,74844.0,6.43,-29.89,-30.11,0,*77
1487164064.63,33616,14.25,74840.8,6.43,-31.11,-31.29,0,*76
1487164065.87,33617,14.25,74840.5,6.41,-31.51,-31.73,0,*7E
1487164067.08,33618,14.25,74844.0,6.41,-32.23,-32.39,0,*7A
1487164068.31,33619,14.25,74842.3,6.37,-32.69,-32.85,0,*73
1487164069.54,33620,14.25,74840.0,6.37,-31.23,-31.45,0,*7B
1487164070.79,33621,14.25,74838.5,6.35,-32.13,-32.29,0,*71
1487164072.04,33622,14.25,74834.3,6.31,-31.51,-31.67,0,*7A
1487164073.3,33623,14.25,74836.3,6.31,-31.11,-31.17,0,*78
1487164074.55,33624,14.25,74842.5,6.29,-31.51,-31.73,0,*70
1487164075.81,33625,14.25,74844.8,6.27,-31.95,-32.23,0,*71
1487164077.04,33626,14.25,74846.3,6.29,-31.61,-31.79,0,*7B
1487164078.27,33627,14.25,74852.8,6.25,-31.29,-31.39,0,*7E
1487164079.51,33628,14.25,74852.8,6.25,-30.73,-31.05,0,*70
1487164080.75,33629,14.25,74854.5,6.25,-29.39,-29.67,0,*7A
1487164081.99,33630,14.25,74854.8,6.25,-28.79,-28.85,0,*7A
1487164083.25,33631,14.25,74856.3,6.25,-29.29,-29.35,0,*75
1487164084.48,33632,14.25,74852.8,6.27,-29.07,-29.23,0,*7F
1487164085.77,33633,14.25,74854.3,6.27,-28.63,-28.63,0,*78
1487164087.03,33634,14.25,74858.3,6.29,-29.35,-29.51,0,*73
1487164088.27,33635,14.25,74854.0,6.29,-29.13,-29.13,0,*70
1487164089.47,33636,14.25,74856.8,6.29,-29.07,-29.07,0,*73
1487164090.7,33637,14.25,74852.3,6.31,-28.53,-28.53,0,*7B
1487164091.96,33638,14.25,74856.8,6.35,-28.21,-28.37,0,*77
1487164093.21,33639,14.25,74852.8,6.31,-28.37,-28.43,0,*76
1487164094.48,33640,14.25,74850.3,6.31,-28.75,-28.75,0,*7B
1487164095.77,33641,14.25,74848.5,6.35,-28.63,-28.63,0,*7E
1487164097.03,33642,14.25,74846.0,6.35,-28.53,-28.63,0,*7E
1487164098.29,33643,14.25,74846.8,6.35,-29.23,-29.51,0,*79
1487164099.53,33644,14.25,74844.0,6.37,-29.13,-29.13,0,*79
1487164100.73,33645,14.25,74850.5,6.37,-28.31,-28.37,0,*7E
1487164101.98,33646,14.25,74850.0,6.37,-27.99,-28.05,0,*71
1487164103.24,33647,14.25,74850.3,6.39,-28.25,-28.31,0,*71
1487164104.5,33648,14.25,74850.0,6.39,-28.25,-28.31,0,*7E
1487164105.76,33649,14.25,74860.8,6.37,-28.63,-28.63,0,*74